Location: Breitenfeld
(46.8500°N, 15.6333°E)
Time: 23:36:32
(UTC+00:00)

Cosmos 2074 Rocket - Pass Details

Date: 09 April 2020
Orbit: 967 x 986 km, 82.9° (Epoch: 29 May)

Event Time Altitude Azimuth Distance (km) Brightness Sun altitude
Rises 17:56:34 0° 352° (N) 3,699 7.4 -3.9°
Reaches altitude 10° 17:59:07 10° 355° (N) 2,749 6.7 -4.3°
Maximum altitude 18:05:25 70° 80° (E) 1,044 4.1 -5.3°
Drops below altitude 10° 18:11:41 10° 164° (SSE) 2,736 6.0 -6.3°
Sets 18:14:12 0° 166° (SSE) 3,680 6.7 -6.8°
